Weather History for LFOP - March, 2013

Change the Weather History Date:

Tuesday, March 12, 2013

  Actual Average Record
Temperature  
Mean Temperature 26 °F -  
Max Temperature 28 °F 52 °F 64 °F (2014)
Min Temperature 24 °F 39 °F 24 °F (2013)
Degree Days  
Heating Degree Days 39    
Moisture  
Dew Point 22 °F    
Average Humidity 82    
Maximum Humidity 93    
Minimum Humidity 58    
Precipitation  
Precipitation 0.00 in - - ()
Sea Level Pressure  
Sea Level Pressure 29.54 in    
Wind  
Wind Speed 21 mph ()    
Max Wind Speed 28 mph    
Max Gust Speed 38 mph    
Visibility 2.9 miles    
Events Fog , Rain , Snow    
Averages and records for this station are not official NWS values.
T = Trace of Precipitation, MM = Missing Value Source: Averaged Metar Reports

Daily Weather History Graph

Daily Weather History Graph

Search for Another Location

Airport or City:

Trip Planner

Search our weather history database for the weather conditions in past years. The results will help you decide how hot, cold, wet, or windy it might be!

Date:

Astronomy

Mar. 12, 2013 Rise Set
Actual Time 7:15 AM CET 6:55 PM CET
Civil Twilight 6:43 AM CET 7:27 PM CET
Nautical Twilight 6:06 AM CET 8:04 PM CET
Astronomical Twilight 5:28 AM CET 8:42 PM CET
Moon 7:06 AM CET (3/12) 8:05 PM CET (3/12)
Length of Visible Light 12h 44m
Length of Day
11h 40m
New Moon, 0% of the Moon is Illuminated
Mar 12
New Moon
Mar 19
First Quarter
Mar 27
Full
Apr 3
Last Quarter
Apr 10
New

Hourly Weather History & Observations

Time (CET) Temp. Windchill Dew Point Humidity Pressure Visibility Wind Dir Wind Speed Gust Speed Precip Events Conditions
12:00 AM 26.6 °F 11.1 °F 23.0 °F 86% 29.42 in 1.4 mi NE 26.5 mph - N/A Snow Light Snow
12:30 AM 26.6 °F 10.8 °F 23.0 °F 86% 29.42 in 1.4 mi NE 27.6 mph - N/A Snow Light Snow
1:00 AM 26 °F - 24 °F 86% 29.47 in 1 mi NE 27.6 mph - - Snow Light Snow
1:00 AM 26.6 °F 10.8 °F 23.0 °F 86% 29.42 in 0.7 mi NE 27.6 mph - N/A Snow Light Snow
1:30 AM 26.6 °F 10.8 °F 23.0 °F 86% 29.42 in 0.7 mi NE 27.6 mph - N/A Snow Light Snow
2:00 AM 26.6 °F 11.1 °F 23.0 °F 86% 29.42 in 0.9 mi NE 26.5 mph - N/A Snow Light Snow
2:30 AM 26.6 °F 10.8 °F 24.8 °F 93% 29.42 in 0.9 mi NE 27.6 mph - N/A Snow Light Snow
3:00 AM 26.6 °F 11.4 °F 23.0 °F 86% 29.42 in 1.3 mi NE 25.3 mph 36.8 mph N/A   Overcast
3:30 AM 26.6 °F 11.1 °F 23.0 °F 86% 29.42 in 1.1 mi NE 26.5 mph - N/A   Overcast
4:00 AM 26.6 °F 11.4 °F 23.0 °F 86% 29.42 in 1.5 mi NE 25.3 mph - N/A Snow Light Snow
4:30 AM 26.6 °F 11.4 °F 23.0 °F 86% 29.42 in 1.6 mi NE 25.3 mph - N/A   Overcast
5:00 AM 24.8 °F 8.7 °F 23.0 °F 93% 29.42 in 0.6 mi NE 26.5 mph - N/A Fog , Snow Snow
5:30 AM 26.6 °F 11.1 °F 23.0 °F 86% 29.42 in 1.0 mi NE 26.5 mph - N/A Snow Light Snow
6:00 AM 26.6 °F 11.7 °F 23.0 °F 86% 29.42 in 1.4 mi NE 24.2 mph - N/A Snow Light Snow
6:30 AM 24.8 °F 9.0 °F 23.0 °F 93% 29.42 in 1.0 mi NE 25.3 mph 38.0 mph N/A Snow Light Snow
7:00 AM 26 °F - 22 °F 81% 29.47 in 1 mi NE 25.3 mph - - Snow Light Snow
7:00 AM 24.8 °F 9.0 °F 23.0 °F 93% 29.42 in 1.3 mi NE 25.3 mph - N/A Snow Light Snow
7:30 AM 24.8 °F 9.3 °F 23.0 °F 93% 29.44 in 1.2 mi NE 24.2 mph - N/A Snow Light Snow
8:00 AM 24.8 °F 9.3 °F 23.0 °F 93% 29.44 in 1.1 mi NE 24.2 mph - N/A Snow Light Snow
8:30 AM 26.6 °F 12.0 °F 23.0 °F 86% 29.47 in - NE 23.0 mph - N/A Snow Light Snow
9:00 AM 26.6 °F 12.0 °F 21.2 °F 80% 29.47 in - NE 23.0 mph - N/A Snow Light Snow
9:30 AM 26.6 °F 11.7 °F 21.2 °F 80% 29.50 in 3.1 mi NE 24.2 mph - N/A Snow Light Snow
10:00 AM 26.6 °F 11.4 °F 21.2 °F 80% 29.50 in - NE 25.3 mph - N/A   Overcast
10:30 AM 26.6 °F 12.0 °F 21.2 °F 80% 29.50 in 2.2 mi NNE 23.0 mph 34.5 mph N/A Snow Light Snow
11:00 AM 26.6 °F 12.0 °F 21.2 °F 80% 29.53 in 4.3 mi NNE 23.0 mph - N/A   Overcast
11:30 AM 26.6 °F 12.4 °F 21.2 °F 80% 29.53 in 5.0 mi NNE 21.9 mph - N/A Rain Light Freezing Rain
12:00 PM 26.6 °F 12.7 °F 23.0 °F 86% 29.56 in - NNE 20.7 mph - N/A Snow Light Snow
12:30 PM 26.6 °F 13.4 °F 23.0 °F 86% 29.56 in 3.1 mi NNE 18.4 mph - N/A Snow Light Snow
1:00 PM 26 °F - 22 °F 77% 29.61 in 4 mi NNE 20.7 mph - - Snow Light Snow
1:00 PM 26.6 °F 12.7 °F 21.2 °F 80% 29.56 in 1.6 mi NNE 20.7 mph 32.2 mph N/A Snow Light Snow
1:30 PM 26.6 °F 14.3 °F 23.0 °F 86% 29.56 in - NNE 16.1 mph - N/A Snow Light Snow
2:00 PM 26.6 °F 12.0 °F 23.0 °F 86% 29.56 in 1.1 mi NNE 23.0 mph - N/A Snow Light Snow
2:30 PM 26.6 °F 14.7 °F 23.0 °F 86% 29.59 in 1.7 mi NNE 15.0 mph - N/A Snow Light Snow
3:00 PM 26.6 °F 13.4 °F 23.0 °F 86% 29.59 in 3.1 mi NNE 18.4 mph - N/A Snow Light Snow
3:30 PM 26.6 °F 14.3 °F 23.0 °F 86% 29.59 in - NNE 16.1 mph - N/A Snow Light Snow
4:00 PM 26.6 °F 13.4 °F 23.0 °F 86% 29.59 in - NNE 18.4 mph - N/A Snow Light Snow
4:30 PM 26.6 °F 14.7 °F 23.0 °F 86% 29.62 in 1.4 mi NNE 15.0 mph - N/A Snow Snow
5:00 PM 26.6 °F 15.7 °F 23.0 °F 86% 29.62 in - NNE 12.7 mph - N/A Snow Light Snow
5:30 PM 26.6 °F 15.2 °F 23.0 °F 86% 29.62 in 1.9 mi NNE 13.8 mph - N/A Snow Light Snow
6:00 PM 26.6 °F 16.2 °F 23.0 °F 86% 29.62 in 1.2 mi NNE 11.5 mph - N/A   Overcast
6:30 PM 26.6 °F 16.2 °F 21.2 °F 80% 29.65 in 3.7 mi NNE 11.5 mph - N/A Snow Light Snow
7:00 PM 28 °F - 19 °F 58% 29.70 in 9 mi NNE 12.7 mph - - Snow Light Snow
7:00 PM 28.4 °F 18.0 °F 19.4 °F 69% 29.65 in 6.2 mi NNE 12.7 mph - N/A Snow Light Snow
7:30 PM 28.4 °F 17.0 °F 19.4 °F 69% 29.65 in 6.2 mi NNE 15.0 mph - N/A   Unknown
8:00 PM 26.6 °F 14.3 °F 17.6 °F 69% 29.68 in 6.2 mi NNE 16.1 mph - N/A   Unknown
8:30 PM 26.6 °F 14.7 °F 17.6 °F 69% 29.68 in 6.2 mi NNE 15.0 mph - N/A   Unknown
9:00 PM 26.6 °F 15.7 °F 15.8 °F 64% 29.68 in 6.2 mi NNE 12.7 mph - N/A   Unknown
9:30 PM 26.6 °F 16.2 °F 17.6 °F 69% 29.68 in 6.2 mi North 11.5 mph - N/A   Unknown
10:00 PM 26.6 °F 16.2 °F 17.6 °F 69% 29.71 in 6.2 mi NNE 11.5 mph - N/A   Unknown
10:30 PM 26.6 °F 15.7 °F 17.6 °F 69% 29.71 in 6.2 mi NNE 12.7 mph - N/A   Unknown
11:00 PM 24.8 °F 13.4 °F 19.4 °F 80% 29.71 in 6.2 mi NNE 12.7 mph - N/A   Unknown
11:30 PM 24.8 °F 13.4 °F 19.4 °F 80% 29.71 in 6.2 mi NNE 12.7 mph - N/A   Unknown